Location: Rounton
(54.4000°N, 1.3500°W)
Time: 02:49:40
(UTC+00:00)

A-11 Canister half - Pass Details

Date: 02 December 2021
Orbit: 1524 x 1684 km, 47.3° (Epoch: 19 January)

Event Time Altitude Azimuth Distance (km) Brightness Sun altitude
Exits shadow 02:04:28 26° 107° (ESE) 2,857 10.5 -49.4°
Drops below altitude 10° 02:09:04 10° 85° (E) 3,899 11.5 -48.9°
Sets 02:12:32 0° 77° (ENE) 4,867 12.2 -48.5°
